When you browse on this site, cookies collect data to enhance your experience and personalize the content and advertising you see.
Visit our Privacy Policy to learn more. By continuing to use the site, you agree to this use of cookies and data.
  • în România
  • Lista ţărilor
  • Pe 7 zile
  • Temperatura apei
  • Meteo pe hartă
  • Widget-uri
  • user-avatar
    Intrare

    Meteo pe oră la Rio Branco

    Astăzi, 14 Noiembrie, Joi

    Timp Temperatura Precipitaţii Vânt Presiune Umiditate
    00:00 +26°C° 0 mm 1 m/s 743 mmHg 88%
    01:00 +25°C° 0 mm 1 m/s 743 mmHg 89%
    02:00 +25°C° 0.5 mm 1 m/s 743 mmHg 91%
    03:00 +25°C° 0.5 mm 1 m/s 743 mmHg 93%
    04:00 +25°C° 0.5 mm 1 m/s 743 mmHg 95%
    05:00 +25°C° 0.9 mm 1 m/s 744 mmHg 94%
    06:00 +26°C° 0.9 mm 1 m/s 744 mmHg 93%
    07:00 +27°C° 0.9 mm 1 m/s 745 mmHg 92%
    08:00 +27°C° 0 mm 1 m/s 745 mmHg 89%
    09:00 +28°C° 0 mm 1 m/s 745 mmHg 86%
    10:00 +28°C° 0 mm 1 m/s 745 mmHg 83%
    11:00 +29°C° 0.1 mm 1 m/s 744 mmHg 76%
    12:00 +31°C° 0.1 mm 1 m/s 743 mmHg 70%
    13:00 +32°C° 0.1 mm 1 m/s 742 mmHg 63%
    14:00 +33°C° 0 mm 1 m/s 741 mmHg 60%
    15:00 +34°C° 0 mm 1 m/s 741 mmHg 57%
    16:00 +34°C° 0 mm 1 m/s 740 mmHg 54%
    17:00 +32°C° 0.3 mm 1 m/s 741 mmHg 63%
    18:00 +30°C° 0.3 mm 1 m/s 741 mmHg 73%
    19:00 +27°C° 0.3 mm 1 m/s 742 mmHg 83%
    20:00 +27°C° 0.7 mm 1 m/s 742 mmHg 86%
    21:00 +24°C° 0.7 mm 0 m/s 743 mmHg 89%
    22:00 +24°C° 0.7 mm 0 m/s 744 mmHg 92%
    23:00 +23°C° 2.1 mm 0 m/s 743 mmHg 94%

    Mâine, 15 Noiembrie, Vineri

    Timp Temperatura Precipitaţii Vânt Presiune Umiditate
    00:00 +23°C° 2.1 mm 0 m/s 743 mmHg 96%
    01:00 +23°C° 2.1 mm 0 m/s 743 mmHg 97%
    02:00 +23°C° 1.4 mm 0 m/s 743 mmHg 98%
    03:00 +23°C° 1.4 mm 0 m/s 743 mmHg 98%
    04:00 +23°C° 1.4 mm 0 m/s 743 mmHg 98%
    05:00 +23°C° 1.2 mm 0 m/s 744 mmHg 98%
    06:00 +23°C° 1.2 mm 0 m/s 744 mmHg 98%
    07:00 +25°C° 1.2 mm 1 m/s 744 mmHg 98%
    08:00 +26°C° 0.3 mm 1 m/s 745 mmHg 97%
    09:00 +26°C° 0.3 mm 1 m/s 745 mmHg 95%
    10:00 +27°C° 0.3 mm 1 m/s 745 mmHg 94%
    11:00 +27°C° 0.1 mm 1 m/s 744 mmHg 90%
    12:00 +28°C° 0.1 mm 1 m/s 743 mmHg 87%
    13:00 +29°C° 0.1 mm 1 m/s 742 mmHg 83%
    14:00 +28°C° 2.8 mm 1 m/s 742 mmHg 88%
    15:00 +27°C° 2.8 mm 1 m/s 742 mmHg 92%
    16:00 +27°C° 2.8 mm 1 m/s 742 mmHg 96%
    17:00 +26°C° 6.5 mm 1 m/s 742 mmHg 97%
    18:00 +25°C° 6.5 mm 1 m/s 743 mmHg 98%
    19:00 +25°C° 6.5 mm 1 m/s 743 mmHg 99%
    20:00 +25°C° 0.9 mm 1 m/s 744 mmHg 99%
    21:00 +25°C° 0.9 mm 1 m/s 744 mmHg 99%
    22:00 +24°C° 0.9 mm 1 m/s 744 mmHg 99%
    23:00 +24°C° 0.1 mm 1 m/s 744 mmHg 99%

    Poimâine, 16 Noiembrie, Sâmbătă

    Timp Temperatura Precipitaţii Vânt Presiune Umiditate
    00:00 +24°C° 0.1 mm 1 m/s 743 mmHg 99%
    01:00 +24°C° 0.1 mm 1 m/s 742 mmHg 99%
    02:00 +24°C° 0.1 mm 1 m/s 742 mmHg 99%
    03:00 +24°C° 0.1 mm 1 m/s 742 mmHg 99%
    04:00 +24°C° 0.1 mm 1 m/s 742 mmHg 99%
    05:00 +24°C° 0 mm 1 m/s 743 mmHg 98%
    06:00 +24°C° 0 mm 1 m/s 743 mmHg 97%
    07:00 +25°C° 0 mm 1 m/s 743 mmHg 97%
    08:00 +26°C° 0 mm 1 m/s 744 mmHg 88%
    09:00 +26°C° 0 mm 0 m/s 744 mmHg 80%
    10:00 +28°C° 0 mm 0 m/s 744 mmHg 72%
    11:00 +30°C° 0.1 mm 1 m/s 743 mmHg 71%
    12:00 +31°C° 0.1 mm 1 m/s 742 mmHg 70%
    13:00 +31°C° 0.1 mm 1 m/s 741 mmHg 69%
    14:00 +30°C° 0.8 mm 1 m/s 741 mmHg 76%
    15:00 +29°C° 0.8 mm 1 m/s 740 mmHg 82%
    16:00 +29°C° 0.8 mm 1 m/s 740 mmHg 89%
    17:00 +27°C° 0.4 mm 1 m/s 740 mmHg 91%
    18:00 +26°C° 0.4 mm 1 m/s 741 mmHg 94%
    19:00 +25°C° 0.4 mm 1 m/s 741 mmHg 96%
    20:00 +25°C° 0 mm 1 m/s 741 mmHg 97%
    21:00 +25°C° 0 mm 1 m/s 741 mmHg 97%
    22:00 +24°C° 0 mm 1 m/s 742 mmHg 97%
    23:00 +24°C° 0 mm 1 m/s 741 mmHg 97%

    17 Noiembrie, Duminică

    Timp Temperatura Precipitaţii Vânt Presiune Umiditate
    00:00 +24°C° 0 mm 1 m/s 741 mmHg 98%
    01:00 +24°C° 0 mm 1 m/s 741 mmHg 98%
    02:00 +23°C° 0 mm 1 m/s 741 mmHg 98%
    03:00 +23°C° 0 mm 1 m/s 741 mmHg 98%
    04:00 +23°C° 0 mm 1 m/s 741 mmHg 98%
    05:00 +24°C° 0 mm 1 m/s 742 mmHg 96%
    06:00 +24°C° 0 mm 1 m/s 743 mmHg 94%
    07:00 +25°C° 0 mm 1 m/s 743 mmHg 92%
    08:00 +27°C° 0.4 mm 1 m/s 743 mmHg 84%
    09:00 +30°C° 0.4 mm 1 m/s 743 mmHg 76%
    10:00 +32°C° 0.4 mm 1 m/s 743 mmHg 68%
    11:00 +32°C° 1.5 mm 1 m/s 742 mmHg 70%
    12:00 +32°C° 1.5 mm 1 m/s 741 mmHg 72%
    13:00 +32°C° 1.5 mm 1 m/s 740 mmHg 74%
    14:00 +32°C° 0.4 mm 1 m/s 739 mmHg 74%
    15:00 +32°C° 0.4 mm 1 m/s 739 mmHg 73%
    16:00 +32°C° 0.4 mm 1 m/s 738 mmHg 73%
    17:00 +30°C° 0 mm 1 m/s 739 mmHg 77%
    18:00 +28°C° 0 mm 1 m/s 739 mmHg 81%
    19:00 +27°C° 0 mm 1 m/s 740 mmHg 85%
    20:00 +26°C° 0.3 mm 1 m/s 740 mmHg 87%
    21:00 +26°C° 0.3 mm 1 m/s 741 mmHg 89%
    22:00 +25°C° 0.3 mm 1 m/s 742 mmHg 91%
    23:00 +25°C° 0.2 mm 1 m/s 741 mmHg 93%

    18 Noiembrie, Luni

    Timp Temperatura Precipitaţii Vânt Presiune Umiditate
    00:00 +23°C° 0.2 mm 0 m/s 741 mmHg 95%
    01:00 +22°C° 0.2 mm 0 m/s 741 mmHg 97%
    02:00 +22°C° 0 mm 0 m/s 741 mmHg 97%
    03:00 +22°C° 0 mm 0 m/s 741 mmHg 97%
    04:00 +22°C° 0 mm 0 m/s 741 mmHg 97%
    05:00 +23°C° 0 mm 0 m/s 742 mmHg 94%
    06:00 +24°C° 0 mm 0 m/s 742 mmHg 91%
    07:00 +25°C° 0 mm 0 m/s 743 mmHg 88%
    08:00 +27°C° 1.4 mm 0 m/s 743 mmHg 86%
    09:00 +28°C° 1.4 mm 0 m/s 743 mmHg 84%
    10:00 +29°C° 1.4 mm 0 m/s 743 mmHg 81%
    11:00 +30°C° 1.2 mm 0 m/s 742 mmHg 74%
    12:00 +33°C° 1.2 mm 1 m/s 741 mmHg 67%
    13:00 +34°C° 1.2 mm 1 m/s 740 mmHg 60%
    14:00 +33°C° 0.1 mm 1 m/s 740 mmHg 62%
    15:00 +33°C° 0.1 mm 1 m/s 739 mmHg 64%
    16:00 +31°C° 0.1 mm 0 m/s 739 mmHg 66%
    17:00 +29°C° 0.4 mm 0 m/s 739 mmHg 73%
    18:00 +27°C° 0.4 mm 0 m/s 740 mmHg 80%
    19:00 +25°C° 0.4 mm 0 m/s 740 mmHg 86%
    20:00 +25°C° 2.7 mm 0 m/s 741 mmHg 90%
    21:00 +24°C° 2.7 mm 0 m/s 741 mmHg 94%
    22:00 +23°C° 2.7 mm 0 m/s 742 mmHg 97%
    23:00 +23°C° 2.3 mm 0 m/s 742 mmHg 98%

    19 Noiembrie, Marţi

    Timp Temperatura Precipitaţii Vânt Presiune Umiditate
    00:00 +25°C° 2.3 mm 1 m/s 742 mmHg 98%
    01:00 +25°C° 2.3 mm 1 m/s 741 mmHg 98%
    02:00 +25°C° 1.8 mm 1 m/s 742 mmHg 99%
    03:00 +25°C° 1.8 mm 1 m/s 742 mmHg 99%
    04:00 +25°C° 1.8 mm 1 m/s 742 mmHg 99%
    05:00 +25°C° 4.1 mm 1 m/s 743 mmHg 99%
    06:00 +24°C° 4.1 mm 1 m/s 743 mmHg 98%
    07:00 +24°C° 4.1 mm 1 m/s 744 mmHg 98%
    08:00 +25°C° 1.1 mm 1 m/s 744 mmHg 97%
    09:00 +25°C° 1.1 mm 1 m/s 744 mmHg 96%
    10:00 +24°C° 1.1 mm 0 m/s 745 mmHg 95%
    11:00 +25°C° 0.2 mm 0 m/s 744 mmHg 92%
    12:00 +25°C° 0.2 mm 0 m/s 743 mmHg 90%
    13:00 +26°C° 0.2 mm 0 m/s 742 mmHg 87%
    14:00 +26°C° 0 mm 0 m/s 742 mmHg 85%
    15:00 +28°C° 0 mm 1 m/s 741 mmHg 83%
    16:00 +28°C° 0 mm 1 m/s 741 mmHg 81%
    17:00 +27°C° 0 mm 1 m/s 741 mmHg 86%
    18:00 +26°C° 0 mm 1 m/s 742 mmHg 91%
    19:00 +25°C° 0 mm 1 m/s 742 mmHg 96%
    20:00 +25°C° 0 mm 1 m/s 743 mmHg 97%
    21:00 +25°C° 0 mm 1 m/s 743 mmHg 97%
    22:00 +25°C° 0 mm 1 m/s 744 mmHg 98%
    23:00 +25°C° 0.1 mm 1 m/s 744 mmHg 98%
    Arată mai mult